Regional Weather Roundup
Issued by NWS Sterling, VA

Home | Current Version | Previous Version | Text Only | Print | Product List | Glossary Off
Versions: 1 2 3 4 5 6 7 8 9 10 11 12 13 14 15 16 17 18 19 20 21 22 23 24 25 26 27 28 29 30 31 32 33 34 35 36 37 38 39 40 41 42 43 44 45 46 47 48 49 50

000
ASUS41 KLWX 191211
RWRLWX

REGIONAL WEATHER ROUNDUP
NATIONAL WEATHER SERVICE BALTIMORE MD/WASHINGTON DC
700 AM EST FRI JAN 19 2018

Note: "FAIR" indicates few or no clouds below 12,000 feet
with no significant weather and/or obstructions to visibility.
 TC=TEMPERATURE CELSIUS

 * =Non NWS site. Station does not report precipitation (e.g. rain,
    snow, etc.), thunder, or fog.

DCZ001-MDZ009-015-VAZ040>042-051-053>054-191300-
WASHINGTON METRO

CITY           SKY/WX    TMP DP  RH WIND       PRES   REMARKS
WASHINGTON NAT FAIR      28  19  69 CALM      30.14R
DULLES         FAIR      19  14  81 E3        30.12R
ANDREWS AFB    FAIR      26  13  58 NW3       30.10R
FT BELVOIR     FAIR      18  14  85 CALM      30.13R
QUANTICO       PTCLDY    21  17  84 NW6       30.14  WCI  13
COLLEGE PARK*  FAIR      20  17  89 CALM      30.12R
LEESBURG*      FAIR      28  18  64 NW12      30.13R WCI  18
MANASSAS*      FAIR      15  13  91 CALM      30.13R
GAITHERSBURG*  FAIR      21  14  74 W5        30.11R WCI  15

$$

MDZ006>007-011-014-191300-
BALTIMORE METRO

CITY           SKY/WX    TMP DP  RH WIND       PRES   REMARKS
BWI AIRPORT    FAIR      21  14  74 CALM      30.11R
MD SCIENCE CTR   N/A     30  17  58 MISG      30.12R
MARTIN STATE   PTCLDY    21  19  93 CALM      30.14R
ANNAPOLIS      FAIR      27  19  72 NW3       30.13R
FORT MEADE*    FAIR      18  14  86 CALM      30.15R

$$

MDZ012-015-019>023-191300-
MARYLAND EASTERN SHORE

CITY           SKY/WX    TMP DP  RH WIND       PRES   REMARKS
OCEAN CITY     FAIR      24  19  81 SW3       30.13R
SALISBURY      FAIR      19  16  88 SE3       30.12S
BAY BRIDGE AP* FAIR      25  16  68 MISG      30.13R
CAMBRIDGE*     CLEAR     21  16  79 CALM      30.12R
EASTON*        CLEAR     25  18  74 CALM      30.16R

$$

MDZ017>025-191300-
SOUTHERN MARYLAND

CITY           SKY/WX    TMP DP  RH WIND       PRES   REMARKS
PATUXENT RIVER CLEAR     22  16  78 S3        30.12R
ST INIGOES     FAIR      25  19  78 CALM      30.12R
LEONARDTOWN*   FAIR      28  16  59 CALM      30.13R

$$

MDZ003>005-191300-
NORTH CENTRAL MARYLAND

CITY           SKY/WX    TMP DP  RH WIND       PRES   REMARKS
FREDERICK*     FAIR      34  10  37 W10       30.14R WCI  26
HAGERSTOWN APT FAIR      30  10  43 S5        30.11R WCI  25
WESTMINSTER*   FAIR      32  12  43 W5        30.08R WCI  27

$$

MDZ501>502-191300-
WESTERN MARYLAND

CITY           SKY/WX    TMP DP  RH WIND       PRES   REMARKS
OAKLAND*       FAIR      19   7  58 SW18G24   30.04R WCI   4
CUMBERLAND*    FAIR      32  10  40 W3        30.17R

$$

VAZ025>031-191300-
SHENANDOAH VALLEY

CITY           SKY/WX    TMP DP  RH WIND       PRES   REMARKS
WINCHESTER*    FAIR      32   9  37 CALM      30.13R
FRONT ROYAL*   FAIR      32   7  34 SE5       30.10R WCI  27
LURAY*         FAIR      25  12  58 CALM      30.11R
NEW MARKET*    FAIR      22   9  58 CALM      30.11R
STAUNTON*      FAIR      27   4  38 SW5       30.13R WCI  21
WAYNESBORO*    FAIR      34  -3  20 SW8       30.10S WCI  27

$$

WVZ021-048>050-054>055-191300-
EASTERN WEST VIRGINIA PANHANDLE

CITY           SKY/WX    TMP DP  RH WIND       PRES   REMARKS
MARTINSBURG    FAIR      35   9  33 W13       30.11R WCI  26
PETERSBURG*    FAIR      36   8  31 CALM      30.14R

$$

VAZ036>039-050-191300-
CENTRAL FOOTHILLS

CITY           SKY/WX    TMP DP  RH WIND       PRES   REMARKS
CHARLOTTESVILL FAIR      39  -3  17 VRB3      30.09S
CULPEPER*      FAIR      15  11  84 CALM      30.12S
ORANGE*        FAIR      25  12  58 CALM      30.10S
GORDONSVILLE*  FAIR      23  14  70 SW6       30.10S WCI  15
WARRENTON*     FAIR      15  10  82 CALM      30.11R

$$

VAZ055>057-191300-
NORTH AND CENTRAL PIEDMONT

CITY           SKY/WX    TMP DP  RH WIND       PRES   REMARKS
FREDERICKSBRG* FAIR      19  17  90 CALM      30.12R
STAFFORD*      FAIR      17  15  93 CALM      30.15S

$$

NCZ024-NYZ072-PAZ021-071-VAZ022-071-191300-
OTHER REGIONAL OBSERVATIONS

CITY           SKY/WX    TMP DP  RH WIND       PRES   REMARKS
NEW YORK CITY  FAIR      28  13  53 VRB3      30.07S
PHILADELPHIA   MOCLDY    25  17  72 W6        30.11R WCI  18
PITTSBURGH     FAIR      22  10  60 SW9       30.10R WCI  12
ROANOKE        FAIR      31   5  33 W12G21    30.19R WCI  22
RICHMOND       FAIR      26  15  63 CALM      30.13S
RALEIGH        FAIR      20  18  92 NW3       30.21R

$$

ANZ530>537-191300-
MARINE OBSERVATIONS

STATION/POSITION TIME  TEMP    WIND        PRES
                       AIR SEA DIR/SP/G
                 (UTC) (F)     (DEG/KT/KT) (MB)
THOMAS PT LIGHT  1200   29 32  270/  4/  4   N/A
BALT KEY BRIDGE  1136   29     250/  3/  4 1019.9R
COVE POINT       1136   31      CALM  /  5 1020.3R
LEWISETTA        1136   28 32  240/  5/  6 1020.2R
SOLOMONS ISLAND  1136   29 34   CALM  /  1 1019.5R
PINEY POINT      1148          200/  6/  7   N/A

$$




USA.gov is the U.S. government's official web portal to all federal, state and local government web resources and services.